Weather History for KMOB - April, 2012

Change the Weather History Date:

Tuesday, April 10, 2012

  Actual Average Record
Temperature  
Mean Temperature 68 °F 65 °F  
Max Temperature 83 °F 76 °F 89 °F (1882)
Min Temperature 52 °F 54 °F 38 °F (1938)
Degree Days  
Heating Degree Days 0 3  
Month to date heating degree days 0 33  
Since 1 July heating degree days 1118 1664  
Cooling Degree Days 3 3  
Month to date cooling degree days 51 23  
Year to date cooling degree days 246 78  
Growing Degree Days 17 (Base 50)    
Moisture  
Dew Point 51 °F    
Average Humidity 60    
Maximum Humidity 86    
Minimum Humidity 33    
Precipitation  
Precipitation 0.00 in 0.17 in 2.71 in (1955)
Month to date precipitation 1.21 1.71  
Year to date precipitation 17.39 18.62  
Snow  
Snow 0.00 in 0.00 in - ()
Month to date snowfall 0.0 0.0  
Since 1 July snowfall 0.0 0.2  
Snow Depth 0.00 in    
Sea Level Pressure  
Sea Level Pressure 30.08 in    
Wind  
Wind Speed 3 mph (NW)    
Max Wind Speed 16 mph    
Max Gust Speed 20 mph    
Visibility 10 miles    
Events      
T = Trace of Precipitation, MM = Missing Value Source: NWS Daily Summary

Daily Weather History Graph

Daily Weather History Graph

Search for Another Location

Airport or City:

Trip Planner

Search our weather history database for the weather conditions in past years. The results will help you decide how hot, cold, wet, or windy it might be!

Date:

Astronomy

Apr. 10, 2012 Rise Set
Actual Time 6:30 AM CDT 7:18 PM CDT
Civil Twilight 6:06 AM CDT 7:42 PM CDT
Nautical Twilight 5:37 AM CDT 8:11 PM CDT
Astronomical Twilight 5:07 AM CDT 8:41 PM CDT
Moon 11:58 PM CDT (4/10) 9:31 AM CDT (4/10)
Length of Visible Light 13h 36m
Length of Day
12h 47m
Waning Gibbous, 79% of the Moon is Illuminated
Apr 10
Waning Gibbous
Apr 13
Last Quarter
Apr 21
New
Apr 29
First Quarter
May 5
Full

Hourly Weather History & Observations

Time (CDT) Temp. Dew Point Humidity Pressure Visibility Wind Dir Wind Speed Gust Speed Precip Events Conditions
12:56 AM 59.0 °F 52.0 °F 78% 30.08 in 10.0 mi Calm Calm - N/A   Scattered Clouds
1:56 AM 55.9 °F 52.0 °F 87% 30.08 in 10.0 mi Calm Calm - N/A   Partly Cloudy
2:56 AM 53.1 °F 48.9 °F 86% 30.07 in 10.0 mi Calm Calm - N/A   Clear
3:56 AM 53.1 °F 48.9 °F 86% 30.07 in 10.0 mi Calm Calm - N/A   Clear
4:56 AM 53.1 °F 48.9 °F 86% 30.07 in 10.0 mi Calm Calm - N/A   Partly Cloudy
5:56 AM 54.0 °F 48.0 °F 80% 30.10 in 10.0 mi Calm Calm - N/A   Scattered Clouds
6:56 AM 54.0 °F 48.9 °F 83% 30.11 in 10.0 mi Calm Calm - N/A   Mostly Cloudy
7:56 AM 60.1 °F 52.0 °F 75% 30.13 in 10.0 mi Calm Calm - N/A   Scattered Clouds
8:56 AM 69.1 °F 48.9 °F 49% 30.12 in 10.0 mi Calm Calm - N/A   Scattered Clouds
9:56 AM 73.0 °F 45.0 °F 37% 30.13 in 10.0 mi ENE 4.6 mph - N/A   Scattered Clouds
10:56 AM 78.1 °F 48.0 °F 35% 30.13 in 10.0 mi North 4.6 mph - N/A   Scattered Clouds
11:56 AM 78.1 °F 48.0 °F 35% 30.12 in 10.0 mi Variable 3.5 mph - N/A   Scattered Clouds
12:56 PM 80.1 °F 48.9 °F 34% 30.11 in 10.0 mi NW 8.1 mph - N/A   Scattered Clouds
1:56 PM 81.0 °F 48.9 °F 33% 30.09 in 10.0 mi Variable 5.8 mph - N/A   Mostly Cloudy
2:56 PM 82.0 °F 50.0 °F 33% 30.06 in 10.0 mi NNW 8.1 mph - N/A   Mostly Cloudy
3:56 PM 82.9 °F 51.1 °F 33% 30.04 in 10.0 mi NNW 5.8 mph - N/A   Mostly Cloudy
4:56 PM 80.6 °F 51.8 °F 37% 30.04 in 10.0 mi NNW 11.5 mph - N/A   Mostly Cloudy
5:56 PM 78.1 °F 53.1 °F 42% 30.04 in 10.0 mi NW 9.2 mph - N/A   Mostly Cloudy
6:56 PM 73.9 °F 53.1 °F 48% 30.03 in 10.0 mi Calm Calm - N/A   Scattered Clouds
7:56 PM 70.0 °F 55.0 °F 59% 30.04 in 10.0 mi SW 4.6 mph - N/A   Scattered Clouds
8:56 PM 68.0 °F 55.9 °F 65% 30.06 in 10.0 mi WSW 3.5 mph - N/A   Partly Cloudy
9:56 PM 64.0 °F 57.0 °F 78% 30.06 in 10.0 mi WSW 3.5 mph - N/A   Partly Cloudy
10:56 PM 64.4 °F 57.2 °F 77% 30.07 in 10.0 mi Calm Calm - N/A   Partly Cloudy
11:56 PM 63.0 °F 57.0 °F 81% 30.06 in 10.0 mi Calm Calm - N/A   Scattered Clouds